Home > Time Zones > World Clock > Weather > Spain > Jaén > Past weeks

Flag for Spain Weather past 2 weeks in Jaén, Spain

Now
79 °F

Scattered clouds.


Feels Like: 79 °F
Forecast: 61 / 79 °F
Wind: 5 mph from Northwest

Location: Granada / Aeropuerto

Current Time: Sep 5, 2015 at 3:08:02 PM

Latest Report: Sep 5, 2015 at 2:30 PM


Visibility: N/A

Pressure: 30.07 "Hg (28.19 "Hg at 565m altitude)

Humidity: 37%

Dew point: 50 °F

Location of JaénLocation

Historic Weather in Jaén — Graph

°F

Jaén temperature yesterday

Maximum temperature yesterday: 81 °F (at 3:30 PM)
Minimum temperature yesterday: 52 °F (at 7:00 AM)
Average temperature yesterday: 69 °F

Past Weeks' High & Low Weather Summary

 TemperatureHumidityPressure
High100 °F (Aug 28, 4:30 PM)88% (Aug 30, 8:00 AM)30.12 "Hg (Aug 30, 8:00 AM)
Low52 °F (Sep 4, 7:00 AM)9% (Sep 2, 5:00 PM)29.92 "Hg (Sep 3, 6:00 PM)
Average79 °F45%30.03 "Hg
* Reported Aug 21 2:00 PM — Sep 5 2:00 PM, Jaén, Weather by CustomWeather, © 2015

Note: Actual official high and low records may vary slightly from our data, if they occured in-between our weather recording intervals... More about our weather records

Advertising

Jaén weather history for previous 24 hours

 ConditionsComfort  
Time TempWeatherWind HumidityBarometerVisibility
2:00 PM
Sat, Sep 5
75 °FScattered clouds.2 mph44%30.07 "HgN/A
1:30 PM75 °FPassing clouds.2 mph44%30.07 "HgN/A
12:30 PM75 °FPassing clouds.1 mph44%30.09 "HgN/A
12:00 PM70 °FPassing clouds.No wind53%30.09 "HgN/A
11:30 AM70 °FPassing clouds.No wind53%30.09 "HgN/A
11:00 AM66 °FPassing clouds.1 mph60%30.09 "HgN/A
10:30 AM66 °FPassing clouds.1 mph56%30.09 "HgN/A
10:00 AM64 °FPassing clouds.No wind60%30.09 "HgN/A
9:30 AM63 °FPassing clouds.No wind64%30.07 "HgN/A
9:00 AM63 °FPassing clouds.No wind68%30.07 "HgN/A
8:30 AM61 °FPassing clouds.No wind72%30.07 "HgN/A
8:00 AM61 °FPassing clouds.3 mph72%30.04 "HgN/A
7:30 AM61 °FPassing clouds.1 mph72%30.04 "HgN/A
7:00 AM59 °FClear.No wind82%30.04 "Hg10 mi
6:30 AM59 °FClear.1 mph77%30.04 "Hg10 mi
6:00 AM61 °FClear.No wind72%30.04 "Hg10 mi
12:00 AM66 °FClear.7 mph52%30.04 "Hg10 mi
11:30 PM
Fri, Sep 4
66 °FClear.3 mph52%30.04 "Hg10 mi
11:00 PM66 °FClear.3 mph49%30.04 "Hg10 mi
10:30 PM68 °FClear.3 mph46%30.04 "Hg10 mi
10:00 PM70 °FPassing clouds.8 mph43%30.01 "HgN/A
9:30 PM72 °FSunny.8 mph41%30.01 "Hg10 mi
9:00 PM72 °FSunny.10 mph44%30.01 "Hg10 mi
8:30 PM75 °FSunny.12 mph39%29.98 "Hg10 mi
8:00 PM75 °FPassing clouds.13 mph39%29.98 "HgN/A
7:30 PM77 °FSunny.15 mph34%29.98 "Hg10 mi
7:00 PM79 °FPassing clouds.14 mph34%29.98 "HgN/A
6:30 PM81 °FPassing clouds.12 mph32%29.98 "HgN/A
6:00 PM81 °FPassing clouds.14 mph32%29.95 "HgN/A
5:30 PM81 °FPassing clouds.12 mph34%29.98 "HgN/A
5:00 PM81 °FPassing clouds.14 mph32%29.98 "HgN/A
4:30 PM81 °FPassing clouds.10 mph32%29.98 "HgN/A
4:00 PM81 °FPassing clouds.7 mph32%29.98 "HgN/A
3:30 PM81 °FPassing clouds.7 mph34%29.98 "HgN/A
3:00 PM79 °FPassing clouds.5 mph37%29.98 "HgN/A
Weather by CustomWeather, © 2015

See weather overviewHow to use our weather pages